Theta_e
329 328 328 328 327 327 324 320 317 312 313 318 319 325 327 327 324 325 324 311 306 306 308 311 315 317 317 319 319 320 321 322 322 321 321 322 322 323
329 328 329 329 329 326 325 324 322 320 315 317 318 320 325 326 323 326 324 314 306 304 304 306 310 313 314 315 315 316 317 318 319 319 320 320 321 322
308 306 316 323 328 327 327 326 325 323 318 320 321 323 320 323 324 324 322 321 318 303 303 304 305 307 309 310 311 313 314 314 316 317 318 319 320 321
298 301 299 300 298 305 320 324 324 325 322 318 320 320 320 321 323 322 322 323 322 308 303 303 303 304 305 306 307 308 309 309 310 311 313 315 317 319
293 296 294 293 292 293 297 300 313 322 321 318 316 322 321 320 317 318 320 321 321 312 302 301 302 303 304 305 306 306 307 306 305 305 306 307 309 312
290 292 291 289 289 290 292 295 297 300 316 320 321 322 319 320 321 318 318 320 319 319 311 307 303 302 302 303 304 305 305 305 304 303 302 302 302 305
287 287 289 288 288 288 289 290 293 296 301 305 316 319 319 313 317 319 318 318 318 317 316 313 310 307 306 302 306 305 304 304 304 303 301 300 299 301
285 285 287 287 286 287 288 288 291 290 292 297 303 306 313 317 317 317 316 314 310 316 314 310 307 309 308 307 304 302 302 302 302 302 301 300 300 299
284 284 284 285 285 285 286 287 288 288 285 289 289 292 291 292 290 308 316 315 313 310 313 308 295 300 293 295 298 299 299 299 300 299 299 298 298 297
284 284 283 284 284 284 284 284 284 285 285 287 288 288 288 288 290 293 294 315 303 303 312 302 288 287 287 290 294 295 295 296 296 297 297 297 296 295
284 283 283 283 284 285 282 282 282 282 284 285 286 286 286 287 287 290 293 298 292 292 289 295 285 284 285 285 288 293 293 294 294 295 295 295 294 292
282 282 284 284 284 284 281 281 279 280 280 280 280 282 284 284 284 284 285 285 288 288 288 295 285 285 285 284 285 287 288 290 291 292 293 293 292 288
279 280 281 283 283 283 283 280 280 280 280 279 279 280 280 282 283 283 283 283 284 286 286 286 285 285 285 281 283 285 286 286 287 289 291 291 290 289
277 280 280 282 282 281 281 281 281 280 279 278 278 278 279 280 281 282 283 282 282 281 284 286 285 286 283 279 279 282 284 285 285 284 285 287 288 288
278 279 279 279 279 278 279 280 277 277 278 277 276 277 278 280 280 281 282 282 282 281 281 283 285 286 285 283 278 281 280 282 283 283 283 282 282 283
274 274 272 275 273 273 274 275 276 276 276 277 276 276 277 277 278 280 279 279 278 278 281 281 281 284 282 281 280 279 279 278 281 281 281 281 281 282
272 271 270 270 270 271 271 272 274 274 274 276 276 275 275 275 275 278 278 277 275 277 277 279 280 281 280 280 278 278 277 278 279 279 280 279 280 281
269 268 267 267 267 268 269 270 271 272 273 274 275 275 275 275 275 276 277 276 274 275 275 278 279 278 278 278 281 277 277 278 279 280 280 278 278 280
267 267 267 265 266 267 267 268 269 270 272 271 273 274 275 276 276 275 275 275 274 274 276 278 277 276 273 271 275 282 277 278 279 278 279 279 277 278
267 266 266 267 266 266 266 267 267 269 269 269 269 270 274 275 275 274 275 273 274 274 274 276 275 274 273 271 270 273 282 279 278 277 276 278 279 280
266 266 266 266 265 265 265 265 265 266 266 267 267 268 269 274 273 274 274 274 274 274 273 274 276 278 277 276 270 270 274 280 279 277 277 275 274 275
264 265 265 265 262 262 263 263 263 263 262 264 265 266 266 271 273 273 273 272 274 274 274 276 278 277 275 272 270 269 271 273 276 277 277 276 275 272
260 263 260 261 259 259 263 261 261 259 260 260 262 263 264 268 270 272 271 271 271 271 274 274 276 275 274 273 271 271 271 272 273 272 272 275 277 278
Wind_Speed
11 11 9 8 6 7 6 4 5 4 6 5 5 10 10 8 11 11 11 15 18 20 21 22 23 23 24 25 24 24 25 24 24 24 25 25 24 23
2 7 8 8 8 6 6 5 4 7 8 5 6 6 10 8 10 13 12 15 19 19 19 20 21 22 22 23 23 21 23 23 23 24 24 24 24 24
12 15 11 11 8 7 6 8 10 9 11 8 3 4 6 10 10 11 10 10 8 18 19 20 21 21 21 22 23 25 24 24 24 24 22 23 24 25
15 14 15 12 16 16 9 9 10 10 9 13 11 8 9 9 12 12 9 8 9 14 21 21 21 22 21 23 24 25 24 23 23 22 21 22 23 23
15 15 16 15 14 12 12 11 13 6 7 7 11 7 9 4 4 5 8 9 8 9 17 18 19 21 22 24 25 26 26 23 22 21 20 20 20 20
15 14 15 17 15 14 11 13 11 13 9 8 9 8 7 6 7 7 7 8 9 8 9 11 14 18 21 25 26 27 25 23 21 19 20 20 20 20
15 14 13 19 22 19 10 12 11 11 10 8 8 10 9 4 10 5 11 9 10 8 8 7 7 8 10 18 22 28 26 24 23 21 19 18 17 18
15 16 13 19 19 22 19 19 15 12 11 9 5 9 10 7 8 10 10 8 8 8 9 9 6 9 9 10 19 22 25 25 23 22 20 20 21 20
16 13 13 12 20 18 21 17 12 12 9 10 12 10 9 7 10 12 13 12 14 7 11 10 3 7 1 1 11 16 19 19 20 21 21 20 21 21
13 14 15 16 20 21 16 15 14 13 14 11 8 9 9 10 9 8 11 15 2 3 10 8 3 2 0 1 5 8 10 13 15 16 18 20 19 18
11 14 15 15 25 28 16 15 15 13 12 18 16 15 16 16 15 9 6 9 4 4 3 7 4 3 1 0 1 5 7 9 11 14 15 15 14 13
11 12 21 21 24 23 14 14 16 16 14 14 12 12 13 12 16 10 6 4 5 5 3 8 4 5 2 2 1 1 3 8 9 11 14 19 21 8
9 10 10 23 24 24 21 14 15 14 13 11 9 9 10 10 9 8 8 6 3 3 6 3 1 4 3 4 1 2 5 6 4 7 14 16 19 17
9 8 11 24 24 23 16 24 23 15 11 10 10 11 11 10 10 9 9 6 5 5 9 2 2 2 4 4 4 4 4 5 7 6 6 10 13 13
9 17 23 22 20 14 23 24 15 11 10 12 12 11 10 10 10 9 7 7 5 7 9 7 2 2 1 0 4 6 10 5 6 8 7 6 7 7
9 9 10 13 11 10 11 13 10 10 10 9 10 9 9 9 9 9 7 9 3 6 9 10 8 4 3 2 4 6 1 6 7 6 8 7 6 5
8 7 9 10 11 11 11 11 11 11 12 10 8 8 8 8 9 9 8 6 4 5 7 7 9 10 9 3 4 5 7 5 6 8 8 8 6 6
8 8 8 9 9 10 11 11 10 12 11 12 10 11 7 9 9 9 8 7 7 7 5 5 4 3 3 9 13 5 6 6 7 7 8 8 7 6
7 7 7 6 8 9 10 10 11 10 12 10 11 10 11 8 10 7 9 7 7 7 7 5 4 3 4 4 3 12 4 5 7 8 7 6 8 7
7 7 8 9 9 9 9 10 10 10 11 11 11 12 10 10 8 9 7 8 7 6 6 7 6 6 3 3 3 6 14 5 5 8 8 8 9 18
7 7 7 7 8 8 9 9 10 10 10 10 10 10 12 9 9 8 8 8 8 6 6 6 5 5 3 2 5 5 9 24 15 7 7 7 5 3
3 5 6 5 5 7 8 8 9 9 10 10 10 11 11 10 9 8 8 8 7 6 6 6 5 5 5 6 7 5 5 7 17 23 20 11 2 4
2 2 3 2 3 3 6 7 7 7 8 9 9 10 11 10 11 7 7 8 7 7 7 5 6 6 7 7 8 7 8 7 5 8 8 13 14 17
Wind_Direction
206 205 213 230 229 225 218 212 206 230 230 236 229 212 212 205 204 200 203 203 206 208 207 208 207 203 198 195 200 202 208 210 211 207 206 208 212 214
243 233 232 240 234 227 230 226 240 241 253 196 227 225 199 204 204 200 207 198 206 208 209 208 208 207 202 194 194 200 206 206 208 209 208 208 209 212
28 20 1 316 254 256 239 247 234 219 235 254 202 231 225 211 207 206 200 207 207 207 206 208 208 205 199 196 197 201 207 207 206 207 207 211 212 215
16 19 17 7 14 1 317 231 225 232 229 241 254 236 218 225 218 203 205 207 211 208 209 207 208 209 204 200 200 201 203 204 203 203 203 209 212 215
24 30 19 10 15 354 354 339 326 265 237 248 268 237 218 204 187 205 208 212 213 199 212 210 208 211 211 207 203 204 204 204 202 201 203 204 207 211
30 26 24 17 9 350 359 341 339 328 307 251 247 240 229 211 206 204 224 217 218 215 214 211 205 215 214 216 213 204 201 203 206 206 207 208 209 211
34 20 28 17 12 359 351 345 338 335 314 309 294 247 237 207 201 209 228 213 218 203 213 213 209 216 224 226 222 207 200 202 203 204 205 212 213 225
32 16 14 19 2 5 4 359 6 2 330 310 328 315 311 270 231 215 216 214 229 209 211 225 194 217 211 212 214 210 201 196 200 204 203 206 213 213
29 14 8 14 9 358 11 7 2 8 337 345 331 346 315 3 319 298 223 216 224 190 198 224 195 205 255 181 189 190 190 193 200 204 203 207 211 212
24 16 10 6 11 9 360 359 3 359 353 341 328 310 324 326 314 287 286 256 234 186 180 200 157 193 94 332 184 176 181 191 202 205 207 209 208 211
19 16 11 7 11 11 5 359 359 356 347 341 356 350 349 344 343 324 4 317 253 220 227 142 173 126 140 96 329 172 177 197 201 207 205 205 199 162
3 11 7 11 10 9 11 5 355 349 339 341 346 352 357 351 355 353 330 327 322 321 249 173 139 146 175 221 172 103 120 141 155 164 168 157 147 132
359 5 7 6 7 7 9 9 358 339 340 342 340 348 354 350 353 344 339 330 311 263 342 25 187 160 96 129 144 155 150 139 125 139 152 155 153 147
348 359 1 5 9 7 7 3 360 355 353 353 355 356 351 348 338 333 322 330 328 302 313 16 294 300 142 150 160 156 163 150 143 138 138 131 124 132
360 12 9 7 3 1 2 1 358 360 355 360 357 348 339 328 324 329 320 310 315 349 2 334 267 155 20 353 140 179 145 171 158 145 138 135 128 127
3 2 359 2 359 358 358 358 357 355 350 345 347 338 333 340 341 343 332 338 356 352 356 7 3 340 114 111 120 144 34 156 149 136 122 105 101 105
1 8 7 5 3 0 359 356 353 356 354 348 339 345 346 341 340 341 344 341 355 4 355 358 21 50 53 17 96 128 121 130 128 130 117 113 98 108
10 12 8 4 0 357 354 349 352 353 350 342 348 347 344 349 343 343 346 353 354 351 356 324 335 328 27 41 52 96 109 123 126 122 120 121 111 97
15 7 0 359 358 356 352 348 344 350 345 349 339 343 346 345 342 348 350 348 346 349 354 358 358 9 82 92 354 38 101 122 128 121 118 118 117 112
15 7 1 8 3 354 352 347 343 347 349 345 344 342 340 343 346 349 354 347 346 347 5 15 12 15 40 53 93 18 56 94 105 97 97 90 91 101
6 5 358 2 359 350 345 347 343 349 346 343 342 341 337 340 347 345 345 344 342 347 359 359 30 38 75 70 68 52 43 61 60 89 110 104 101 96
347 352 350 1 352 348 344 349 345 348 346 343 340 338 338 336 340 350 354 356 340 340 345 347 57 56 57 74 76 72 55 57 60 63 56 56 99 130
309 325 313 330 307 314 353 345 343 339 341 338 335 334 335 335 337 351 352 350 357 348 333 2 40 48 61 75 84 86 85 68 64 67 59 62 69 90